Gainesville, FL

11:32 AM EST on January 18, 2017 (GMT -0500)
Gainesville Regional

Weather History for KGNV - October, 2012

Change the Weather History Date:

Wednesday, October 31, 2012

  Actual Average Record
Temperature  
Mean Temperature 59 °F 67 °F  
Max Temperature 72 °F 78 °F 93 °F (1915)
Min Temperature 46 °F 55 °F 35 °F (1963)
Degree Days  
Heating Degree Days 6 2  
Month to date heating degree days 28 26  
Since 1 July heating degree days 28 27  
Cooling Degree Days 0 4  
Month to date cooling degree days 249 210  
Year to date cooling degree days 2946 2550  
Growing Degree Days 8 (Base 50)    
Moisture  
Dew Point 38 °F    
Average Humidity 54    
Maximum Humidity 80    
Minimum Humidity 27    
Precipitation  
Precipitation 0.00 in 0.07 in 3.32 in (1960)
Month to date precipitation 0.89 2.88  
Year to date precipitation 49.26 42.87  
Snow  
Snow 0.00 in 0.00 in 0.00 in ()
Month to date snowfall 0.0 0.0  
Since 1 July snowfall 0.0 0.0  
Since 1 September snowfall 0.0 0.0  
Snow Depth 0.00 in    
Sea Level Pressure  
Sea Level Pressure 29.98 in    
Wind  
Wind Speed 10 mph (West)    
Max Wind Speed 21 mph    
Max Gust Speed 28 mph    
Visibility 10 miles    
Events      
T = Trace of Precipitation, MM = Missing Value Source: NWS Daily Summary

Daily Weather History Graph

Daily Weather History Graph

Search for Another Location

Airport or City:

Trip Planner

Search our weather history database for the weather conditions in past years. The results will help you decide how hot, cold, wet, or windy it might be!

Date:

Astronomy

Oct. 31, 2012 Rise Set
Actual Time 7:42 AM EDT 6:42 PM EDT
Civil Twilight 7:17 AM EDT 7:07 PM EDT
Nautical Twilight 6:49 AM EDT 7:35 PM EDT
Astronomical Twilight 6:21 AM EDT 8:03 PM EDT
Moon 8:01 PM EDT (10/31) 9:14 AM EDT (10/31)
Length of Visible Light 11h 49m
Length of Day
11h 00m
Full, 97% of the Moon is Illuminated
Oct 31
Full
Nov 6
Last Quarter
Nov 13
New
Nov 20
First Quarter
Nov 28
Full

Hourly Weather History & Observations

Time (EDT) Temp. Dew Point Humidity Pressure Visibility Wind Dir Wind Speed Gust Speed Precip Events Conditions
12:53 AM 54.0 °F 34.0 °F 47% 29.96 in 10.0 mi WNW 10.4 mph - N/A   Clear
1:53 AM 53.1 °F 34.0 °F 48% 29.96 in 10.0 mi WNW 10.4 mph - N/A   Clear
2:53 AM 51.1 °F 35.1 °F 54% 29.95 in 10.0 mi WNW 6.9 mph - N/A   Clear
3:53 AM 50.0 °F 35.1 °F 57% 29.96 in 10.0 mi West 8.1 mph - N/A   Clear
4:53 AM 51.1 °F 34.0 °F 52% 29.97 in 10.0 mi WNW 8.1 mph - N/A   Clear
5:53 AM 46.9 °F 35.1 °F 63% 29.98 in 10.0 mi West 5.8 mph - N/A   Clear
6:53 AM 50.0 °F 35.1 °F 57% 29.99 in 10.0 mi WNW 5.8 mph - N/A   Clear
7:53 AM 48.0 °F 35.1 °F 61% 30.01 in 10.0 mi West 5.8 mph - N/A   Clear
8:53 AM 52.0 °F 36.0 °F 54% 30.03 in 10.0 mi West 8.1 mph - N/A   Clear
9:53 AM 57.0 °F 35.1 °F 44% 30.04 in 10.0 mi West 9.2 mph - N/A   Clear
10:53 AM 61.0 °F 32.0 °F 34% 30.04 in 10.0 mi West 9.2 mph - N/A   Clear
11:53 AM 64.9 °F 32.0 °F 29% 30.03 in 10.0 mi WNW 11.5 mph 17.3 mph N/A   Clear
12:53 PM 68.0 °F 33.1 °F 27% 30.01 in 10.0 mi West 19.6 mph 24.2 mph N/A   Clear
1:53 PM 69.1 °F 35.1 °F 29% 29.98 in 10.0 mi WNW 18.4 mph 23.0 mph N/A   Clear
2:53 PM 71.1 °F 36.0 °F 28% 29.94 in 10.0 mi West 15.0 mph 21.9 mph N/A   Clear
3:53 PM 71.1 °F 37.0 °F 29% 29.93 in 10.0 mi WNW 16.1 mph 21.9 mph N/A   Clear
4:53 PM 71.1 °F 37.9 °F 30% 29.93 in 10.0 mi West 11.5 mph 21.9 mph N/A   Clear
5:53 PM 68.0 °F 39.9 °F 36% 29.94 in 10.0 mi WSW 13.8 mph - N/A   Clear
6:53 PM 62.1 °F 41.0 °F 46% 29.95 in 10.0 mi West 6.9 mph - N/A   Clear
8:53 PM 60.1 °F 45.0 °F 57% 29.98 in 10.0 mi WSW 6.9 mph - N/A   Clear
9:53 PM 60.1 °F 48.0 °F 64% 29.98 in 10.0 mi WSW 8.1 mph - N/A   Clear
10:53 PM 59.0 °F 50.0 °F 72% 29.98 in 10.0 mi WSW 9.2 mph - N/A   Clear
11:53 PM 57.0 °F 51.1 °F 81% 29.99 in 10.0 mi WSW 8.1 mph - N/A   Clear